Year,Month,Day,Hour,Minute,Value (Times are PST for temperature in C)
2014,02,08,00,00,-6.10
2014,02,08,00,01,-6.10
2014,02,08,00,02,-6.10
2014,02,08,00,03,-6.10
2014,02,08,00,04,-6.20
2014,02,08,00,05,-6.20
2014,02,08,00,06,-6.20
2014,02,08,00,07,-6.20
2014,02,08,00,08,-6.20
2014,02,08,00,09,-6.20
2014,02,08,00,10,-6.20
2014,02,08,00,11,-6.20
2014,02,08,00,12,-6.30
2014,02,08,00,13,-6.30
2014,02,08,00,14,-6.30
2014,02,08,00,15,-6.30
2014,02,08,00,16,-6.30
2014,02,08,00,17,-6.30
2014,02,08,00,18,-6.30
2014,02,08,00,19,-6.40
2014,02,08,00,20,-6.40
2014,02,08,00,21,-6.40
2014,02,08,00,22,-6.40
2014,02,08,00,23,-6.40
2014,02,08,00,24,-6.40
2014,02,08,00,25,-6.50
2014,02,08,00,26,-6.50
2014,02,08,00,27,-6.50
2014,02,08,00,28,-6.50
2014,02,08,00,29,-6.50
2014,02,08,00,30,-6.50
2014,02,08,00,31,-6.50
2014,02,08,00,32,-6.50
2014,02,08,00,33,-6.60
2014,02,08,00,34,-6.60
2014,02,08,00,35,-6.60
2014,02,08,00,36,-6.60
2014,02,08,00,37,-6.60
2014,02,08,00,38,-6.60
2014,02,08,00,39,-6.70
2014,02,08,00,40,-6.70
2014,02,08,00,41,-6.80
2014,02,08,00,42,-6.80
2014,02,08,00,43,-6.80
2014,02,08,00,44,-6.80
2014,02,08,00,45,-6.80
2014,02,08,00,46,-6.80
2014,02,08,00,47,-6.90
2014,02,08,00,48,-6.90
2014,02,08,00,49,-6.90
2014,02,08,00,50,-7.00
2014,02,08,00,51,-7.00
2014,02,08,00,52,-7.00
2014,02,08,00,53,-7.10
2014,02,08,00,54,-7.10
2014,02,08,00,55,-7.10
2014,02,08,00,56,-7.20
2014,02,08,00,57,-7.10
2014,02,08,00,58,-7.20
2014,02,08,00,59,-7.20
2014,02,08,01,00,-7.20
2014,02,08,01,01,-7.20
2014,02,08,01,02,-7.20
2014,02,08,01,03,-7.20
2014,02,08,01,04,-7.20
2014,02,08,01,05,-7.20
2014,02,08,01,06,-7.30
2014,02,08,01,07,-7.30
2014,02,08,01,08,-7.30
2014,02,08,01,09,-7.30
2014,02,08,01,10,-7.30
2014,02,08,01,11,-7.40
2014,02,08,01,12,-7.40
2014,02,08,01,13,-7.40
2014,02,08,01,14,-7.40
2014,02,08,01,15,-7.40
2014,02,08,01,16,-7.40
2014,02,08,01,17,-7.40
2014,02,08,01,18,-7.40
2014,02,08,01,19,-7.50
2014,02,08,01,20,-7.50
2014,02,08,01,21,-7.50
2014,02,08,01,22,-7.50
2014,02,08,01,23,-7.50
2014,02,08,01,24,-7.50
2014,02,08,01,25,-7.50
2014,02,08,01,26,-7.50
2014,02,08,01,27,-7.60
2014,02,08,01,28,-7.60
2014,02,08,01,29,-7.60
2014,02,08,01,30,-7.60
2014,02,08,01,31,-7.60
2014,02,08,01,32,-7.70
2014,02,08,01,33,-7.70
2014,02,08,01,34,-7.70
2014,02,08,01,35,-7.70
2014,02,08,01,36,-7.70
2014,02,08,01,37,-7.70
2014,02,08,01,38,-7.80
2014,02,08,01,39,-7.80
2014,02,08,01,40,-7.80
2014,02,08,01,41,-7.80
2014,02,08,01,42,-7.90
2014,02,08,01,43,-7.90
2014,02,08,01,44,-7.90
2014,02,08,01,45,-7.90
2014,02,08,01,46,-7.90
2014,02,08,01,47,-7.90
2014,02,08,01,48,-7.80
2014,02,08,01,49,-7.80
2014,02,08,01,50,-7.80
2014,02,08,01,51,-7.90
2014,02,08,01,52,-7.90
2014,02,08,01,53,-7.90
2014,02,08,01,54,-7.90
2014,02,08,01,55,-7.90
2014,02,08,01,56,-7.90
2014,02,08,01,57,-7.90
2014,02,08,01,58,-7.90
2014,02,08,01,59,-7.90
2014,02,08,02,00,-7.90
2014,02,08,02,01,-7.90
2014,02,08,02,02,-7.90
2014,02,08,02,03,-8.00
2014,02,08,02,04,-8.00
2014,02,08,02,05,-8.10
2014,02,08,02,06,-8.10
2014,02,08,02,07,-8.10
2014,02,08,02,08,-8.10
2014,02,08,02,09,-8.10
2014,02,08,02,10,-8.10
2014,02,08,02,11,-8.10
2014,02,08,02,12,-8.10
2014,02,08,02,13,-8.20
2014,02,08,02,14,-8.20
2014,02,08,02,15,-8.20
2014,02,08,02,16,-8.20
2014,02,08,02,17,-8.20
2014,02,08,02,18,-8.20
2014,02,08,02,19,-8.20
2014,02,08,02,20,-8.20
2014,02,08,02,21,-8.20
2014,02,08,02,22,-8.20
2014,02,08,02,23,-8.20
2014,02,08,02,24,-8.20
2014,02,08,02,25,-8.20
2014,02,08,02,26,-8.30
2014,02,08,02,27,-8.30
2014,02,08,02,28,-8.30
2014,02,08,02,29,-8.30
2014,02,08,02,30,-8.30
2014,02,08,02,31,-8.30
2014,02,08,02,32,-8.30
2014,02,08,02,33,-8.40
2014,02,08,02,34,-8.40
2014,02,08,02,35,-8.40
2014,02,08,02,36,-8.40
2014,02,08,02,37,-8.40
2014,02,08,02,38,-8.50
2014,02,08,02,39,-8.50
2014,02,08,02,40,-8.50
2014,02,08,02,41,-8.50
2014,02,08,02,42,-8.50
2014,02,08,02,43,-8.50
2014,02,08,02,44,-8.50
2014,02,08,02,45,-8.50
2014,02,08,02,46,-8.50
2014,02,08,02,47,-8.50
2014,02,08,02,48,-8.50
2014,02,08,02,49,-8.50
2014,02,08,02,50,-8.50
2014,02,08,02,51,-8.50
2014,02,08,02,52,-8.50
2014,02,08,02,53,-8.50
2014,02,08,02,54,-8.60
2014,02,08,02,55,-8.60
2014,02,08,02,56,-8.60
2014,02,08,02,57,-8.60
2014,02,08,02,58,-8.60
2014,02,08,02,59,-8.60
2014,02,08,03,00,-8.60
2014,02,08,03,01,-8.60
2014,02,08,03,02,-8.60
2014,02,08,03,03,-8.60
2014,02,08,03,04,-8.60
2014,02,08,03,05,-8.60
2014,02,08,03,06,-8.60
2014,02,08,03,07,-8.60
2014,02,08,03,08,-8.70
2014,02,08,03,09,-8.70
2014,02,08,03,10,-8.70
2014,02,08,03,11,-8.70
2014,02,08,03,12,-8.70
2014,02,08,03,13,-8.70
2014,02,08,03,14,-8.70
2014,02,08,03,15,-8.70
2014,02,08,03,16,-8.70
2014,02,08,03,17,-8.70
2014,02,08,03,18,-8.80
2014,02,08,03,19,-8.80
2014,02,08,03,20,-8.80
2014,02,08,03,21,-8.80
2014,02,08,03,22,-8.80
2014,02,08,03,23,-8.80
2014,02,08,03,24,-8.90
2014,02,08,03,25,-8.90
2014,02,08,03,26,-8.90
2014,02,08,03,27,-8.90
2014,02,08,03,28,-8.90
2014,02,08,03,29,-8.90
2014,02,08,03,30,-8.90
2014,02,08,03,31,-8.90
2014,02,08,03,32,-8.90
2014,02,08,03,33,-9.00
2014,02,08,03,34,-9.00
2014,02,08,03,35,-9.00
2014,02,08,03,36,-9.00
2014,02,08,03,37,-9.00
2014,02,08,03,38,-9.00
2014,02,08,03,39,-9.00
2014,02,08,03,40,-9.00
2014,02,08,03,41,-9.00
2014,02,08,03,42,-9.10
2014,02,08,03,43,-9.10
2014,02,08,03,44,-9.20
2014,02,08,03,45,-9.20
2014,02,08,03,46,-9.20
2014,02,08,03,47,-9.20
2014,02,08,03,48,-9.20
2014,02,08,03,49,-9.20
2014,02,08,03,50,-9.20
2014,02,08,03,51,-9.20
2014,02,08,03,52,-9.20
2014,02,08,03,53,-9.20
2014,02,08,03,54,-9.20
2014,02,08,03,55,-9.30
2014,02,08,03,56,-9.30
2014,02,08,03,57,-9.30
2014,02,08,03,58,-9.30
2014,02,08,03,59,-9.30
2014,02,08,04,00,-9.20
2014,02,08,04,01,-9.30
2014,02,08,04,02,-9.30
2014,02,08,04,03,-9.30
2014,02,08,04,04,-9.30
2014,02,08,04,05,-9.30
2014,02,08,04,06,-9.30
2014,02,08,04,07,-9.30
2014,02,08,04,08,-9.30
2014,02,08,04,09,-9.30
2014,02,08,04,10,-9.30
2014,02,08,04,11,-9.30
2014,02,08,04,12,-9.30
2014,02,08,04,13,-9.30
2014,02,08,04,14,-9.30
2014,02,08,04,15,-9.30
2014,02,08,04,16,-9.30
2014,02,08,04,17,-9.30
2014,02,08,04,18,-9.30
2014,02,08,04,19,-9.30
2014,02,08,04,20,-9.40
2014,02,08,04,21,-9.40
2014,02,08,04,22,-9.40
2014,02,08,04,23,-9.50
2014,02,08,04,24,-9.50
2014,02,08,04,25,-9.50
2014,02,08,04,26,-9.50
2014,02,08,04,27,-9.50
2014,02,08,04,28,-9.50
2014,02,08,04,29,-9.50
2014,02,08,04,30,-9.50
2014,02,08,04,31,-9.50
2014,02,08,04,32,-9.50
2014,02,08,04,33,-9.50
2014,02,08,04,34,-9.50
2014,02,08,04,35,-9.50
2014,02,08,04,36,-9.50
2014,02,08,04,37,-9.50
2014,02,08,04,38,-9.50
2014,02,08,04,39,-9.60
2014,02,08,04,40,-9.60
2014,02,08,04,41,-9.60
2014,02,08,04,42,-9.60
2014,02,08,04,43,-9.60
2014,02,08,04,44,-9.60
2014,02,08,04,45,-9.60
2014,02,08,04,46,-9.60
2014,02,08,04,47,-9.60
2014,02,08,04,48,-9.60
2014,02,08,04,49,-9.60
2014,02,08,04,50,-9.60
2014,02,08,04,51,-9.70
2014,02,08,04,52,-9.70
2014,02,08,04,53,-9.70
2014,02,08,04,54,-9.70
2014,02,08,04,55,-9.70
2014,02,08,04,56,-9.70
2014,02,08,04,57,-9.70
2014,02,08,04,58,-9.70
2014,02,08,04,59,-9.80
2014,02,08,05,00,-9.80
2014,02,08,05,01,-9.80
2014,02,08,05,02,-9.80
2014,02,08,05,03,-9.80
2014,02,08,05,04,-9.80
2014,02,08,05,05,-9.80
2014,02,08,05,06,-9.80
2014,02,08,05,07,-9.80
2014,02,08,05,08,-9.80
2014,02,08,05,09,-9.80
2014,02,08,05,10,-9.80
2014,02,08,05,11,-9.80
2014,02,08,05,12,-9.80
2014,02,08,05,13,-9.80
2014,02,08,05,14,-9.80
2014,02,08,05,15,-9.80
2014,02,08,05,16,-9.80
2014,02,08,05,17,-9.80
2014,02,08,05,18,-9.80
2014,02,08,05,19,-9.80
2014,02,08,05,20,-9.80
2014,02,08,05,21,-9.80
2014,02,08,05,22,-9.80
2014,02,08,05,23,-9.80
2014,02,08,05,24,-9.80
2014,02,08,05,25,-9.80
2014,02,08,05,26,-9.80
2014,02,08,05,27,-9.80
2014,02,08,05,28,-9.80
2014,02,08,05,29,-9.80
2014,02,08,05,30,-9.80
2014,02,08,05,31,-9.80
2014,02,08,05,32,-9.80
2014,02,08,05,33,-9.80
2014,02,08,05,34,-9.80
2014,02,08,05,35,-9.80
2014,02,08,05,36,-9.80
2014,02,08,05,37,-9.90
2014,02,08,05,38,-9.90
2014,02,08,05,39,-9.90
2014,02,08,05,40,-9.90
2014,02,08,05,41,-9.90
2014,02,08,05,42,-9.90
2014,02,08,05,43,-9.90
2014,02,08,05,44,-9.90
2014,02,08,05,45,-9.90
2014,02,08,05,46,-9.90
2014,02,08,05,47,-9.90
2014,02,08,05,48,-9.90
2014,02,08,05,49,-9.90
2014,02,08,05,50,-9.90
2014,02,08,05,51,-10.00
2014,02,08,05,52,-10.00
2014,02,08,05,53,-10.00
2014,02,08,05,54,-10.00
2014,02,08,05,55,-9.90
2014,02,08,05,56,-9.90
2014,02,08,05,57,-10.00
2014,02,08,05,58,-10.00
2014,02,08,05,59,-10.00
2014,02,08,06,00,-10.00
2014,02,08,06,01,-10.00
2014,02,08,06,02,-10.00
2014,02,08,06,03,-10.00
2014,02,08,06,04,-9.90
2014,02,08,06,05,-9.90
2014,02,08,06,06,-9.90
2014,02,08,06,07,-9.90
2014,02,08,06,08,-9.90
2014,02,08,06,09,-9.90
2014,02,08,06,10,-9.90
2014,02,08,06,11,-9.90
2014,02,08,06,12,-9.90
2014,02,08,06,13,-9.90
2014,02,08,06,14,-9.90
2014,02,08,06,15,-9.90
2014,02,08,06,16,-9.90
2014,02,08,06,17,-9.90
2014,02,08,06,18,-9.90
2014,02,08,06,19,-10.00
2014,02,08,06,20,-10.00
2014,02,08,06,21,-10.00
2014,02,08,06,22,-10.10
2014,02,08,06,23,-10.10
2014,02,08,06,24,-10.10
2014,02,08,06,25,-10.10
2014,02,08,06,26,-10.10
2014,02,08,06,27,-10.10
2014,02,08,06,28,-10.10
2014,02,08,06,29,-10.20
2014,02,08,06,30,-10.20
2014,02,08,06,31,-10.20
2014,02,08,06,32,-10.20
2014,02,08,06,33,-10.20
2014,02,08,06,34,-10.20
2014,02,08,06,35,-10.20
2014,02,08,06,36,-10.20
2014,02,08,06,37,-10.20
2014,02,08,06,38,-10.20
2014,02,08,06,39,-10.20
2014,02,08,06,40,-10.30
2014,02,08,06,41,-10.30
2014,02,08,06,42,-10.30
2014,02,08,06,43,-10.30
2014,02,08,06,44,-10.30
2014,02,08,06,45,-10.30
2014,02,08,06,46,-10.30
2014,02,08,06,47,-10.30
2014,02,08,06,48,-10.30
2014,02,08,06,49,-10.30
2014,02,08,06,50,-10.30
2014,02,08,06,51,-10.30
2014,02,08,06,52,-10.30
2014,02,08,06,53,-10.40
2014,02,08,06,54,-10.40
2014,02,08,06,55,-10.40
2014,02,08,06,56,-10.40
2014,02,08,06,57,-10.40
2014,02,08,06,58,-10.40
2014,02,08,06,59,-10.40
2014,02,08,07,00,-10.50
2014,02,08,07,01,-10.50
2014,02,08,07,02,-10.50
2014,02,08,07,03,-10.50
2014,02,08,07,04,-10.50
2014,02,08,07,05,-10.40
2014,02,08,07,06,-10.50
2014,02,08,07,07,-10.40
2014,02,08,07,08,-10.50
2014,02,08,07,09,-10.50
2014,02,08,07,10,-10.50
2014,02,08,07,11,-10.40
2014,02,08,07,12,-10.40
2014,02,08,07,13,-10.40
2014,02,08,07,14,-10.40
2014,02,08,07,15,-10.40
2014,02,08,07,16,-10.40
2014,02,08,07,17,-10.40
2014,02,08,07,18,-10.40
2014,02,08,07,19,-10.40
2014,02,08,07,20,-10.50
2014,02,08,07,21,-10.50
2014,02,08,07,22,-10.50
2014,02,08,07,23,-10.50
2014,02,08,07,24,-10.50
2014,02,08,07,25,-10.50
2014,02,08,07,26,-10.50
2014,02,08,07,27,-10.60
2014,02,08,07,28,-10.60
2014,02,08,07,29,-10.60
2014,02,08,07,30,-10.60
2014,02,08,07,31,-10.60
2014,02,08,07,32,-10.60
2014,02,08,07,33,-10.60
2014,02,08,07,34,-10.60
2014,02,08,07,35,-10.60
2014,02,08,07,36,-10.60
2014,02,08,07,37,-10.60
2014,02,08,07,38,-10.60
2014,02,08,07,39,-10.60
2014,02,08,07,40,-10.60
2014,02,08,07,41,-10.60
2014,02,08,07,42,-10.60
2014,02,08,07,43,-10.60
2014,02,08,07,44,-10.60
2014,02,08,07,45,-10.60
2014,02,08,07,46,-10.60
2014,02,08,07,47,-10.60
2014,02,08,07,48,-10.60
2014,02,08,07,49,-10.60
2014,02,08,07,50,-10.60
2014,02,08,07,51,-10.60
2014,02,08,07,52,-10.60
2014,02,08,07,53,-10.60
2014,02,08,07,54,-10.60
2014,02,08,07,55,-10.50
2014,02,08,07,56,-10.60
2014,02,08,07,57,-10.50
2014,02,08,07,58,-10.50
2014,02,08,07,59,-10.60
2014,02,08,08,00,-10.60
2014,02,08,08,01,-10.60
2014,02,08,08,02,-10.60
2014,02,08,08,03,-10.60
2014,02,08,08,04,-10.60
2014,02,08,08,05,-10.60
2014,02,08,08,06,-10.60
2014,02,08,08,07,-10.60
2014,02,08,08,08,-10.60
2014,02,08,08,09,-10.60
2014,02,08,08,10,-10.70
2014,02,08,08,11,-10.70
2014,02,08,08,12,-10.70
2014,02,08,08,13,-10.70
2014,02,08,08,14,-10.70
2014,02,08,08,15,-10.70
2014,02,08,08,16,-10.60
2014,02,08,08,17,-10.60
2014,02,08,08,18,-10.60
2014,02,08,08,19,-10.60
2014,02,08,08,20,-10.60
2014,02,08,08,21,-10.60
2014,02,08,08,22,-10.60
2014,02,08,08,23,-10.60
2014,02,08,08,24,-10.60
2014,02,08,08,25,-10.60
2014,02,08,08,26,-10.60
2014,02,08,08,27,-10.60
2014,02,08,08,28,-10.60
2014,02,08,08,29,-10.60
2014,02,08,08,30,-10.60
2014,02,08,08,31,-10.60
2014,02,08,08,32,-10.60
2014,02,08,08,33,-10.60
2014,02,08,08,34,-10.60
2014,02,08,08,35,-10.60
2014,02,08,08,36,-10.60
2014,02,08,08,37,-10.60
2014,02,08,08,38,-10.50
2014,02,08,08,39,-10.50
2014,02,08,08,40,-10.50
2014,02,08,08,41,-10.50
2014,02,08,08,42,-10.50
2014,02,08,08,43,-10.50
2014,02,08,08,44,-10.50
2014,02,08,08,45,-10.50
2014,02,08,08,46,-10.50
2014,02,08,08,47,-10.50
2014,02,08,08,48,-10.40
2014,02,08,08,49,-10.40
2014,02,08,08,50,-10.40
2014,02,08,08,51,-10.40
2014,02,08,08,52,-10.40
2014,02,08,08,53,-10.30
2014,02,08,08,54,-10.30
2014,02,08,08,55,-10.30
2014,02,08,08,56,-10.20
2014,02,08,08,57,-10.20
2014,02,08,08,58,-10.10
2014,02,08,08,59,-10.10
2014,02,08,09,00,-10.10
2014,02,08,09,01,-10.00
2014,02,08,09,02,-9.90
2014,02,08,09,03,-9.90
2014,02,08,09,04,-9.80
2014,02,08,09,05,-9.70
2014,02,08,09,06,-9.70
2014,02,08,09,07,-9.60
2014,02,08,09,08,-9.50
2014,02,08,09,09,-9.40
2014,02,08,09,10,-9.30
2014,02,08,09,11,-9.20
2014,02,08,09,12,-9.10
2014,02,08,09,13,-9.00
2014,02,08,09,14,-8.80
2014,02,08,09,15,-8.80
2014,02,08,09,16,-8.70
2014,02,08,09,17,-8.50
2014,02,08,09,18,-8.40
2014,02,08,09,19,-8.30
2014,02,08,09,20,-8.20
2014,02,08,09,21,-8.20
2014,02,08,09,22,-8.10
2014,02,08,09,23,-8.00
2014,02,08,09,24,-7.90
2014,02,08,09,25,-7.80
2014,02,08,09,26,-7.80
2014,02,08,09,27,-7.70
2014,02,08,09,28,-7.60
2014,02,08,09,29,-7.50
2014,02,08,09,30,-7.40
2014,02,08,09,31,-7.40
2014,02,08,09,32,-7.30
2014,02,08,09,33,-7.20
2014,02,08,09,34,-7.10
2014,02,08,09,35,-7.00
2014,02,08,09,36,-7.00
2014,02,08,09,37,-6.90
2014,02,08,09,38,-6.80
2014,02,08,09,39,-6.70
2014,02,08,09,40,-6.60
2014,02,08,09,41,-6.60
2014,02,08,09,42,-6.50
2014,02,08,09,43,-6.40
2014,02,08,09,44,-6.30
2014,02,08,09,45,-6.20
2014,02,08,09,46,-6.10
2014,02,08,09,47,-6.10
2014,02,08,09,48,-6.00
2014,02,08,09,49,-6.00
2014,02,08,09,50,-5.90
2014,02,08,09,51,-5.90
2014,02,08,09,52,-5.90
2014,02,08,09,53,-5.90
2014,02,08,09,54,-5.90
2014,02,08,09,55,-5.90
2014,02,08,09,56,-5.90
2014,02,08,09,57,-5.90
2014,02,08,09,58,-5.90
2014,02,08,09,59,-5.90
2014,02,08,10,00,-5.90
2014,02,08,10,01,-5.80
2014,02,08,10,02,-5.80
2014,02,08,10,03,-5.70
2014,02,08,10,04,-5.50
2014,02,08,10,05,-5.40
2014,02,08,10,06,-5.30
2014,02,08,10,07,-5.30
2014,02,08,10,08,-5.20
2014,02,08,10,09,-5.10
2014,02,08,10,10,-5.00
2014,02,08,10,11,-5.00
2014,02,08,10,12,-4.90
2014,02,08,10,13,-4.80
2014,02,08,10,14,-4.70
2014,02,08,10,15,-4.60
2014,02,08,10,16,-4.40
2014,02,08,10,17,-4.40
2014,02,08,10,18,-4.30
2014,02,08,10,19,-4.30
2014,02,08,10,20,-4.30
2014,02,08,10,21,-4.30
2014,02,08,10,22,-4.30
2014,02,08,10,23,-4.30
2014,02,08,10,24,-4.30
2014,02,08,10,25,-4.20
2014,02,08,10,26,-4.20
2014,02,08,10,27,-4.20
2014,02,08,10,28,-4.10
2014,02,08,10,29,-4.00
2014,02,08,10,30,-3.90
2014,02,08,10,31,-3.90
2014,02,08,10,32,-3.80
2014,02,08,10,33,-3.80
2014,02,08,10,34,-3.80
2014,02,08,10,35,-3.70
2014,02,08,10,36,-3.60
2014,02,08,10,37,-3.50
2014,02,08,10,38,-3.40
2014,02,08,10,39,-3.30
2014,02,08,10,40,-3.20
2014,02,08,10,41,-3.10
2014,02,08,10,42,-3.00
2014,02,08,10,43,-3.00
2014,02,08,10,44,-2.90
2014,02,08,10,45,-2.90
2014,02,08,10,46,-2.80
2014,02,08,10,47,-2.70
2014,02,08,10,48,-2.70
2014,02,08,10,49,-2.60
2014,02,08,10,50,-2.50
2014,02,08,10,51,-2.40
2014,02,08,10,52,-2.40
2014,02,08,10,53,-2.30
2014,02,08,10,54,-2.30
2014,02,08,10,55,-2.20
2014,02,08,10,56,-2.20
2014,02,08,10,57,-2.20
2014,02,08,10,58,-2.20
2014,02,08,10,59,-2.10
2014,02,08,11,00,-2.10
2014,02,08,11,01,-2.00
2014,02,08,11,02,-2.00
2014,02,08,11,03,-1.90
2014,02,08,11,04,-1.90
2014,02,08,11,05,-1.80
2014,02,08,11,06,-1.70
2014,02,08,11,07,-1.70
2014,02,08,11,08,-1.50
2014,02,08,11,09,-1.50
2014,02,08,11,10,-1.40
2014,02,08,11,11,-1.40
2014,02,08,11,12,-1.30
2014,02,08,11,13,-1.20
2014,02,08,11,14,-1.10
2014,02,08,11,15,-1.00
2014,02,08,11,16,-1.00
2014,02,08,11,17,-0.90
2014,02,08,11,18,-1.00
2014,02,08,11,19,-1.00
2014,02,08,11,20,-1.10
2014,02,08,11,21,-1.00
2014,02,08,11,22,-1.00
2014,02,08,11,23,-0.90
2014,02,08,11,24,-0.90
2014,02,08,11,25,-0.90
2014,02,08,11,26,-0.90
2014,02,08,11,27,-0.90
2014,02,08,11,28,-0.90
2014,02,08,11,29,-0.90
2014,02,08,11,30,-0.80
2014,02,08,11,31,-0.70
2014,02,08,11,32,-0.50
2014,02,08,11,33,-0.40
2014,02,08,11,34,-0.30
2014,02,08,11,35,-0.20
2014,02,08,11,36,-0.10
2014,02,08,11,37,-0.10
2014,02,08,11,38,-0.10
2014,02,08,11,39,-0.10
2014,02,08,11,40,-0.10
2014,02,08,11,41,-0.20
2014,02,08,11,42,-0.20
2014,02,08,11,43,-0.20
2014,02,08,11,44,-0.20
2014,02,08,11,45,-0.20
2014,02,08,11,46,-0.20
2014,02,08,11,47,-0.20
2014,02,08,11,48,-0.20
2014,02,08,11,49,-0.20
2014,02,08,11,50,-0.20
2014,02,08,11,51,-0.20
2014,02,08,11,52,-0.20
2014,02,08,11,53,-0.10
2014,02,08,11,54,-0.10
2014,02,08,11,55,0.00
2014,02,08,11,56,0.10
2014,02,08,11,57,0.10
2014,02,08,11,58,0.20
2014,02,08,11,59,0.30
2014,02,08,12,00,0.30
2014,02,08,12,01,0.40
2014,02,08,12,02,0.50
2014,02,08,12,03,0.60
2014,02,08,12,04,0.60
2014,02,08,12,05,0.70
2014,02,08,12,06,0.70
2014,02,08,12,07,0.70
2014,02,08,12,08,0.80
2014,02,08,12,09,0.80
2014,02,08,12,10,0.80
2014,02,08,12,11,0.80
2014,02,08,12,12,0.80
2014,02,08,12,13,0.80
2014,02,08,12,14,0.80
2014,02,08,12,15,0.80
2014,02,08,12,16,0.80
2014,02,08,12,17,0.80
2014,02,08,12,18,0.90
2014,02,08,12,19,0.90
2014,02,08,12,20,1.00
2014,02,08,12,21,1.10
2014,02,08,12,22,1.30
2014,02,08,12,23,1.40
2014,02,08,12,24,1.50
2014,02,08,12,25,1.60
2014,02,08,12,26,1.60
2014,02,08,12,27,1.70
2014,02,08,12,28,1.80
2014,02,08,12,29,1.80
2014,02,08,12,30,1.80
2014,02,08,12,31,1.90
2014,02,08,12,32,2.00
2014,02,08,12,33,2.00
2014,02,08,12,34,2.10
2014,02,08,12,35,2.10
2014,02,08,12,36,2.10
2014,02,08,12,37,2.10
2014,02,08,12,38,2.10
2014,02,08,12,39,2.10
2014,02,08,12,40,2.10
2014,02,08,12,41,2.20
2014,02,08,12,42,2.20
2014,02,08,12,43,2.30
2014,02,08,12,44,2.40
2014,02,08,12,45,2.40
2014,02,08,12,46,2.50
2014,02,08,12,47,2.60
2014,02,08,12,48,2.70
2014,02,08,12,49,2.70
2014,02,08,12,50,2.80
2014,02,08,12,51,2.80
2014,02,08,12,52,2.90
2014,02,08,12,53,2.90
2014,02,08,12,54,3.00
2014,02,08,12,55,3.00
2014,02,08,12,56,3.00
2014,02,08,12,57,3.00
2014,02,08,12,58,3.10
2014,02,08,12,59,3.10
2014,02,08,13,00,3.20
2014,02,08,13,01,3.30
2014,02,08,13,02,3.30
2014,02,08,13,03,3.30
2014,02,08,13,04,3.30
2014,02,08,13,05,3.40
2014,02,08,13,06,3.40
2014,02,08,13,07,3.40
2014,02,08,13,08,3.40
2014,02,08,13,09,3.40
2014,02,08,13,10,3.50
2014,02,08,13,11,3.50
2014,02,08,13,12,3.60
2014,02,08,13,13,3.60
2014,02,08,13,14,3.50
2014,02,08,13,15,3.50
2014,02,08,13,16,3.50
2014,02,08,13,17,3.50
2014,02,08,13,18,3.60
2014,02,08,13,19,3.60
2014,02,08,13,20,3.70
2014,02,08,13,21,3.60
2014,02,08,13,22,3.70
2014,02,08,13,23,3.70
2014,02,08,13,24,3.70
2014,02,08,13,25,3.80
2014,02,08,13,26,3.80
2014,02,08,13,27,3.90
2014,02,08,13,28,3.90
2014,02,08,13,29,4.00
2014,02,08,13,30,4.00
2014,02,08,13,31,3.90
2014,02,08,13,32,3.80
2014,02,08,13,33,3.80
2014,02,08,13,34,3.70
2014,02,08,13,35,3.70
2014,02,08,13,36,3.70
2014,02,08,13,37,3.70
2014,02,08,13,38,3.70
2014,02,08,13,39,3.70
2014,02,08,13,40,3.70
2014,02,08,13,41,3.70
2014,02,08,13,42,3.70
2014,02,08,13,43,3.70
2014,02,08,13,44,3.70
2014,02,08,13,45,3.70
2014,02,08,13,46,3.70
2014,02,08,13,47,3.70
2014,02,08,13,48,3.80
2014,02,08,13,49,3.80
2014,02,08,13,50,3.90
2014,02,08,13,51,4.00
2014,02,08,13,52,4.10
2014,02,08,13,53,4.20
2014,02,08,13,54,4.20
2014,02,08,13,55,4.30
2014,02,08,13,56,4.40
2014,02,08,13,57,4.40
2014,02,08,13,58,4.40
2014,02,08,13,59,4.50
2014,02,08,14,00,4.50
2014,02,08,14,01,4.60
2014,02,08,14,02,4.50
2014,02,08,14,03,4.50
2014,02,08,14,04,4.40
2014,02,08,14,05,4.30
2014,02,08,14,06,4.30
2014,02,08,14,07,4.20
2014,02,08,14,08,4.20
2014,02,08,14,09,4.20
2014,02,08,14,10,4.30
2014,02,08,14,11,4.30
2014,02,08,14,12,4.40
2014,02,08,14,13,4.40
2014,02,08,14,14,4.40
2014,02,08,14,15,4.40
2014,02,08,14,16,4.40
2014,02,08,14,17,4.40
2014,02,08,14,18,4.40
2014,02,08,14,19,4.40
2014,02,08,14,20,4.30
2014,02,08,14,21,4.40
2014,02,08,14,22,4.40
2014,02,08,14,23,4.40
2014,02,08,14,24,4.40
2014,02,08,14,25,4.40
2014,02,08,14,26,4.40
2014,02,08,14,27,4.40
2014,02,08,14,28,4.30
2014,02,08,14,29,4.30
2014,02,08,14,30,4.30
2014,02,08,14,31,4.40
2014,02,08,14,32,4.40
2014,02,08,14,33,4.50
2014,02,08,14,34,4.50
2014,02,08,14,35,4.60
2014,02,08,14,36,4.50
2014,02,08,14,37,4.50
2014,02,08,14,38,4.50
2014,02,08,14,39,4.40
2014,02,08,14,40,4.40
2014,02,08,14,41,4.30
2014,02,08,14,42,4.30
2014,02,08,14,43,4.30
2014,02,08,14,44,4.30
2014,02,08,14,45,4.30
2014,02,08,14,46,4.20
2014,02,08,14,47,4.20
2014,02,08,14,48,4.20
2014,02,08,14,49,4.20
2014,02,08,14,50,4.20
2014,02,08,14,51,4.20
2014,02,08,14,52,4.10
2014,02,08,14,53,4.10
2014,02,08,14,54,4.00
2014,02,08,14,55,3.90
2014,02,08,14,56,3.80
2014,02,08,14,57,3.80
2014,02,08,14,58,3.80
2014,02,08,14,59,3.70
2014,02,08,15,00,3.70
2014,02,08,15,01,3.70
2014,02,08,15,02,3.70
2014,02,08,15,03,3.70
2014,02,08,15,04,3.70
2014,02,08,15,05,3.70
2014,02,08,15,06,3.70
2014,02,08,15,07,3.70
2014,02,08,15,08,3.60
2014,02,08,15,09,3.50
2014,02,08,15,10,3.50
2014,02,08,15,11,3.40
2014,02,08,15,12,3.40
2014,02,08,15,13,3.30
2014,02,08,15,14,3.30
2014,02,08,15,15,3.30
2014,02,08,15,16,3.20
2014,02,08,15,17,3.20
2014,02,08,15,18,3.20
2014,02,08,15,19,3.20
2014,02,08,15,20,3.20
2014,02,08,15,21,3.20
2014,02,08,15,22,3.30
2014,02,08,15,23,3.30
2014,02,08,15,24,3.30
2014,02,08,15,25,3.30
2014,02,08,15,26,3.30
2014,02,08,15,27,3.30
2014,02,08,15,28,3.30
2014,02,08,15,29,3.30
2014,02,08,15,30,3.40
2014,02,08,15,31,3.40
2014,02,08,15,32,3.40
2014,02,08,15,33,3.50
2014,02,08,15,34,3.50
2014,02,08,15,35,3.60
2014,02,08,15,36,3.60
2014,02,08,15,37,3.60
2014,02,08,15,38,3.60
2014,02,08,15,39,3.70
2014,02,08,15,40,3.70
2014,02,08,15,41,3.70
2014,02,08,15,42,3.70
2014,02,08,15,43,3.70
2014,02,08,15,44,3.70
2014,02,08,15,45,3.70
2014,02,08,15,46,3.70
2014,02,08,15,47,3.70
2014,02,08,15,48,3.70
2014,02,08,15,49,3.80
2014,02,08,15,50,3.80
2014,02,08,15,51,3.70
2014,02,08,15,52,3.70
2014,02,08,15,53,3.70
2014,02,08,15,54,3.70
2014,02,08,15,55,3.60
2014,02,08,15,56,3.60
2014,02,08,15,57,3.60
2014,02,08,15,58,3.60
2014,02,08,15,59,3.60
2014,02,08,16,00,3.60
2014,02,08,16,01,3.60
2014,02,08,16,02,3.50
2014,02,08,16,03,3.50
2014,02,08,16,04,3.40
2014,02,08,16,05,3.30
2014,02,08,16,06,3.30
2014,02,08,16,07,3.30
2014,02,08,16,08,3.20
2014,02,08,16,09,3.20
2014,02,08,16,10,3.20
2014,02,08,16,11,3.20
2014,02,08,16,12,3.30
2014,02,08,16,13,3.30
2014,02,08,16,14,3.30
2014,02,08,16,15,3.20
2014,02,08,16,16,3.20
2014,02,08,16,17,3.10
2014,02,08,16,18,3.00
2014,02,08,16,19,3.00
2014,02,08,16,20,2.90
2014,02,08,16,21,2.90
2014,02,08,16,22,2.80
2014,02,08,16,23,2.80
2014,02,08,16,24,2.80
2014,02,08,16,25,2.70
2014,02,08,16,26,2.70
2014,02,08,16,27,2.60
2014,02,08,16,28,2.60
2014,02,08,16,29,2.60
2014,02,08,16,30,2.50
2014,02,08,16,31,2.50
2014,02,08,16,32,2.50
2014,02,08,16,33,2.50
2014,02,08,16,34,2.50
2014,02,08,16,35,2.40
2014,02,08,16,36,2.40
2014,02,08,16,37,2.40
2014,02,08,16,38,2.40
2014,02,08,16,39,2.30
2014,02,08,16,40,2.30
2014,02,08,16,41,2.20
2014,02,08,16,42,2.20
2014,02,08,16,43,2.10
2014,02,08,16,44,2.10
2014,02,08,16,45,2.00
2014,02,08,16,46,2.00
2014,02,08,16,47,1.90
2014,02,08,16,48,1.90
2014,02,08,16,49,1.80
2014,02,08,16,50,1.80
2014,02,08,16,51,1.80
2014,02,08,16,52,1.80
2014,02,08,16,53,1.70
2014,02,08,16,54,1.70
2014,02,08,16,55,1.70
2014,02,08,16,56,1.60
2014,02,08,16,57,1.60
2014,02,08,16,58,1.60
2014,02,08,16,59,1.50
2014,02,08,17,00,1.40
2014,02,08,17,01,1.40
2014,02,08,17,02,1.40
2014,02,08,17,03,1.30
2014,02,08,17,04,1.30
2014,02,08,17,05,1.30
2014,02,08,17,06,1.20
2014,02,08,17,07,1.20
2014,02,08,17,08,1.10
2014,02,08,17,09,1.10
2014,02,08,17,10,1.00
2014,02,08,17,11,1.00
2014,02,08,17,12,0.90
2014,02,08,17,13,0.90
2014,02,08,17,14,0.80
2014,02,08,17,15,0.80
2014,02,08,17,16,0.80
2014,02,08,17,17,0.80
2014,02,08,17,18,0.70
2014,02,08,17,19,0.70
2014,02,08,17,20,0.60
2014,02,08,17,21,0.60
2014,02,08,17,22,0.50
2014,02,08,17,23,0.40
2014,02,08,17,24,0.40
2014,02,08,17,25,0.40
2014,02,08,17,26,0.30